Tracking 31027 objects as of 19-Jul-2025
HD Live streaming from Space Station
objects crossing your sky now

DELTA 1 DEB

Track DELTA 1 DEB now!
10-day predictions


NORAD ID: 21493
Int'l Code: 1975-052FN
Perigee: 998.1 km
Apogee: 2,150.5 km
Inclination: 99.7 °
Period: 117.5 minutes
Semi major axis: 7945 km
RCS: 0.04 m2 (small)
Launch date: June 12, 1975
Source: United States (US)
Launch site: AIR FORCE WESTERN TEST RANGE (AFWTR)

Note: This is SATELLITE DEBRIS
Your satellite tracking list
ST5-A
Track 1 satellite(s)




NASA's NSSDC Master Catalog

Two Line Element Set (TLE):
1 21493U 75052FN  25179.43276574  .00083120  00000-0  31329+0 0  9991
2 21493  99.7040 352.3672 0725259  17.0235  10.7907 12.25850450509208
Source of the keplerian elements: AFSPC